Starlink 33671

operational
NORAD ID: 63320 Int'l Des: 2025-057 Owner: SPXS Country: US Constellation: starlink
LEOCIRCULAR

Starlink 33671について

説明を読み込み中...

リアルタイム位置

3D地球を読み込み中...

次回通過

高度履歴

Altitude vs Time

uPlot chart will show altitude changes over time

軌道要素

1 63320U 25057P 25352.76265144 .00035084 00000-0 12807-2 0 9995
2 63320 42.9989 117.2449 0001156 263.6358 96.4362 15.27520982 43526
Epoch: Dec 18, 2025 • Age: 15 hours

現在のステータス

高度 482.5 km
速度 7.63 km/s
衛星直下点 3.47°N, 63.97°E
打ち上げ日 Mar 18, 2025
運用期間 0.7 years
タイプ internet

技術仕様

分類 Payload
質量 575.00 kg
乾燥質量 530.00 kg
総質量 575.00 kg
長さ 0.30 m
直径 4.10 m
スパン 29.00 m
形状 Box + pan
製造者 SPXS
バスタイプ Starlink V2MO
フェーズステータス In Orbit
所有者/国 SPXS/US

大規模コンステレーション

Loading constellations...